When you browse on this site, cookies collect data to enhance your experience and personalize the content and advertising you see.
Visit our Privacy Policy to learn more. By continuing to use the site, you agree to this use of cookies and data.

Hourly Weather Barisal

Today, 3 July, Friday

Time Temperature Precipitation Wind Pressure Humidity
00:00 +28°C° 0 mm 0 mps 750 mmHg 91%
01:00 +30°C° 0.5 mm 1 mps 750 mmHg 90%
02:00 +30°C° 0.5 mm 1 mps 749 mmHg 89%
03:00 +30°C° 0.5 mm 1 mps 749 mmHg 89%
04:00 +30°C° 0.1 mm 1 mps 749 mmHg 88%
05:00 +30°C° 0.1 mm 1 mps 749 mmHg 88%
06:00 +30°C° 0 mm 1 mps 750 mmHg 89%
07:00 +31°C° 1 mm 2 mps 750 mmHg 83%
08:00 +32°C° 1 mm 2 mps 750 mmHg 76%
09:00 +34°C° 1 mm 3 mps 750 mmHg 70%
10:00 +35°C° 1.3 mm 4 mps 750 mmHg 68%
11:00 +35°C° 1.3 mm 4 mps 750 mmHg 66%
12:00 +36°C° 0 mm 5 mps 751 mmHg 62%
13:00 +36°C° 1.9 mm 5 mps 750 mmHg 64%
14:00 +36°C° 1.9 mm 4 mps 749 mmHg 66%
15:00 +35°C° 1.9 mm 4 mps 748 mmHg 68%
16:00 +35°C° 0.7 mm 4 mps 748 mmHg 70%
17:00 +34°C° 0.7 mm 3 mps 748 mmHg 73%
18:00 +34°C° 0.7 mm 3 mps 749 mmHg 75%
19:00 +33°C° 0.5 mm 3 mps 749 mmHg 78%
20:00 +31°C° 0.5 mm 3 mps 749 mmHg 82%
21:00 +31°C° 0.5 mm 3 mps 749 mmHg 85%
22:00 +31°C° 0 mm 3 mps 749 mmHg 85%
23:00 +31°C° 0 mm 3 mps 750 mmHg 86%

Tomorrow, 4 July, Saturday

Time Temperature Precipitation Wind Pressure Humidity
00:00 +31°C° 0 mm 2 mps 750 mmHg 86%
01:00 +30°C° 0.3 mm 2 mps 749 mmHg 86%
02:00 +30°C° 0.3 mm 2 mps 749 mmHg 87%
03:00 +30°C° 0.3 mm 2 mps 748 mmHg 87%
04:00 +30°C° 0.1 mm 2 mps 749 mmHg 86%
05:00 +30°C° 0.1 mm 2 mps 749 mmHg 86%
06:00 +30°C° 0.1 mm 2 mps 749 mmHg 86%
07:00 +31°C° 0.4 mm 3 mps 749 mmHg 79%
08:00 +34°C° 0.4 mm 3 mps 749 mmHg 73%
09:00 +35°C° 0.4 mm 4 mps 750 mmHg 66%
10:00 +34°C° 2.6 mm 5 mps 750 mmHg 69%
11:00 +34°C° 2.6 mm 6 mps 750 mmHg 72%
12:00 +33°C° 2.6 mm 6 mps 749 mmHg 75%
13:00 +33°C° 0.4 mm 6 mps 749 mmHg 78%
14:00 +32°C° 0.4 mm 6 mps 748 mmHg 80%
15:00 +32°C° 0.4 mm 5 mps 748 mmHg 82%
16:00 +32°C° 0 mm 5 mps 748 mmHg 82%
17:00 +32°C° 0 mm 4 mps 748 mmHg 82%
18:00 +32°C° 0 mm 4 mps 748 mmHg 82%
19:00 +30°C° 0 mm 4 mps 749 mmHg 83%
20:00 +30°C° 0 mm 3 mps 749 mmHg 85%
21:00 +30°C° 0 mm 3 mps 749 mmHg 87%
22:00 +30°C° 0.1 mm 3 mps 749 mmHg 87%
23:00 +30°C° 0.1 mm 3 mps 749 mmHg 87%

Day after tomorrow, 5 July, Sunday

Time Temperature Precipitation Wind Pressure Humidity
00:00 +30°C° 0.1 mm 3 mps 749 mmHg 87%
01:00 +30°C° 0.5 mm 3 mps 748 mmHg 88%
02:00 +30°C° 0.5 mm 2 mps 748 mmHg 88%
03:00 +30°C° 0.5 mm 2 mps 748 mmHg 88%
04:00 +30°C° 0.8 mm 2 mps 748 mmHg 88%
05:00 +30°C° 0.8 mm 3 mps 748 mmHg 87%
06:00 +30°C° 0.8 mm 3 mps 748 mmHg 87%
07:00 +29°C° 0.7 mm 3 mps 748 mmHg 87%
08:00 +29°C° 0.7 mm 4 mps 748 mmHg 88%
09:00 +29°C° 0.7 mm 4 mps 749 mmHg 88%
10:00 +30°C° 0.1 mm 4 mps 749 mmHg 87%
11:00 +30°C° 0.1 mm 3 mps 748 mmHg 86%
12:00 +30°C° 0.1 mm 2 mps 748 mmHg 85%
13:00 +31°C° 0.7 mm 2 mps 748 mmHg 83%
14:00 +31°C° 0.7 mm 3 mps 747 mmHg 80%
15:00 +33°C° 0.7 mm 3 mps 747 mmHg 78%
16:00 +33°C° 0.9 mm 4 mps 747 mmHg 79%
17:00 +33°C° 0.9 mm 4 mps 747 mmHg 79%
18:00 +32°C° 0.9 mm 5 mps 747 mmHg 80%
19:00 +32°C° 0 mm 5 mps 747 mmHg 82%
20:00 +30°C° 0 mm 5 mps 748 mmHg 84%
21:00 +30°C° 0 mm 5 mps 748 mmHg 87%
22:00 +30°C° 0.3 mm 5 mps 748 mmHg 87%
23:00 +30°C° 0.3 mm 5 mps 748 mmHg 87%

6 July, Monday

Time Temperature Precipitation Wind Pressure Humidity
00:00 +30°C° 0.3 mm 5 mps 748 mmHg 87%
01:00 +30°C° 1.5 mm 4 mps 748 mmHg 87%
02:00 +30°C° 1.5 mm 4 mps 747 mmHg 87%
03:00 +30°C° 1.5 mm 4 mps 747 mmHg 87%
04:00 +30°C° 1.3 mm 4 mps 747 mmHg 87%
05:00 +30°C° 1.3 mm 3 mps 747 mmHg 87%
06:00 +30°C° 1.3 mm 3 mps 747 mmHg 87%
07:00 +31°C° 0.9 mm 3 mps 747 mmHg 82%
08:00 +33°C° 0.9 mm 4 mps 748 mmHg 77%
09:00 +34°C° 0.9 mm 4 mps 748 mmHg 72%
10:00 +35°C° 2.3 mm 4 mps 748 mmHg 70%
11:00 +35°C° 2.3 mm 5 mps 748 mmHg 68%
12:00 +36°C° 2.3 mm 5 mps 748 mmHg 66%
13:00 +36°C° 2.1 mm 5 mps 747 mmHg 68%
14:00 +35°C° 2.1 mm 6 mps 747 mmHg 69%
15:00 +35°C° 2.1 mm 6 mps 746 mmHg 71%
16:00 +34°C° 0.1 mm 6 mps 746 mmHg 75%
17:00 +33°C° 0.1 mm 5 mps 746 mmHg 78%
18:00 +33°C° 0.1 mm 5 mps 746 mmHg 81%
19:00 +32°C° 0 mm 5 mps 747 mmHg 82%
20:00 +32°C° 0 mm 5 mps 748 mmHg 83%
21:00 +32°C° 0 mm 5 mps 749 mmHg 84%
22:00 +32°C° 0 mm 4 mps 749 mmHg 85%
23:00 +30°C° 0 mm 4 mps 749 mmHg 86%

7 July, Tuesday

Time Temperature Precipitation Wind Pressure Humidity
00:00 +30°C° 0 mm 3 mps 749 mmHg 87%
01:00 +30°C° 0.6 mm 3 mps 749 mmHg 88%
02:00 +30°C° 0.6 mm 3 mps 748 mmHg 88%
03:00 +30°C° 0.6 mm 3 mps 748 mmHg 88%
04:00 +30°C° 1.4 mm 3 mps 748 mmHg 88%
05:00 +30°C° 1.4 mm 3 mps 748 mmHg 88%
06:00 +30°C° 1.4 mm 3 mps 749 mmHg 87%
07:00 +31°C° 0.2 mm 3 mps 749 mmHg 84%
08:00 +31°C° 0.2 mm 3 mps 749 mmHg 82%
09:00 +33°C° 0.2 mm 4 mps 750 mmHg 79%
10:00 +34°C° 0.3 mm 4 mps 750 mmHg 75%
11:00 +35°C° 0.3 mm 4 mps 749 mmHg 71%
12:00 +35°C° 0.3 mm 4 mps 749 mmHg 68%
13:00 +36°C° 0.3 mm 5 mps 749 mmHg 67%
14:00 +36°C° 0.3 mm 5 mps 749 mmHg 67%
15:00 +36°C° 0.3 mm 5 mps 748 mmHg 66%
16:00 +35°C° 0 mm 5 mps 748 mmHg 70%
17:00 +34°C° 0 mm 5 mps 748 mmHg 73%
18:00 +33°C° 0 mm 5 mps 748 mmHg 77%
19:00 +33°C° 0 mm 4 mps 749 mmHg 79%
20:00 +32°C° 0 mm 4 mps 749 mmHg 82%
21:00 +31°C° 0 mm 3 mps 750 mmHg 85%
22:00 +31°C° 0.1 mm 3 mps 750 mmHg 86%
23:00 +31°C° 0.1 mm 3 mps 750 mmHg 87%

8 July, Wednesday

Time Temperature Precipitation Wind Pressure Humidity
00:00 +31°C° 0.1 mm 3 mps 750 mmHg 88%
01:00 +30°C° 0.7 mm 2 mps 750 mmHg 88%
02:00 +30°C° 0.7 mm 2 mps 749 mmHg 87%
03:00 +30°C° 0.7 mm 2 mps 749 mmHg 87%
04:00 +30°C° 1 mm 2 mps 749 mmHg 86%
05:00 +30°C° 1 mm 3 mps 749 mmHg 86%
06:00 +30°C° 1 mm 3 mps 750 mmHg 86%
07:00 +30°C° 0.4 mm 3 mps 750 mmHg 84%
08:00 +31°C° 0.4 mm 3 mps 750 mmHg 82%
09:00 +31°C° 0.4 mm 3 mps 751 mmHg 80%
10:00 +33°C° 0.1 mm 4 mps 751 mmHg 79%
11:00 +33°C° 0.1 mm 4 mps 750 mmHg 78%
12:00 +33°C° 0.1 mm 5 mps 750 mmHg 77%
13:00 +33°C° 0.1 mm 5 mps 750 mmHg 76%
14:00 +33°C° 0.1 mm 6 mps 750 mmHg 76%
15:00 +33°C° 0.1 mm 6 mps 749 mmHg 75%
16:00 +33°C° 0.1 mm 6 mps 749 mmHg 77%
17:00 +33°C° 0.1 mm 5 mps 749 mmHg 78%
18:00 +32°C° 0.1 mm 5 mps 749 mmHg 80%
19:00 +32°C° 0.1 mm 5 mps 750 mmHg 82%
20:00 +32°C° 0.1 mm 5 mps 750 mmHg 83%
21:00 +30°C° 0.1 mm 5 mps 750 mmHg 85%
22:00 +30°C° 0 mm 5 mps 750 mmHg 85%
23:00 +30°C° 0 mm 5 mps 750 mmHg 85%
Show more